STARLINK-34657, 64775

Orbit data source: Space-Track

STARLINK-34657, 64775 is a payload satellite owned by SpaceX/Seattle (US) in LEO that was launched on Tue, 08 Jul 2025 UTC via an FALCON 9 launch vehicle from the Air Force Eastern Test Range (AFETR). Payload-class satellites include a variety of spacecraft equipped with specific instruments for various scientific and technological missions. These include communications satellites like Starlink; space stations such as the ISS; scientific satellites like the Hubble; Earth observation satellites from companies like Planet Labs, Umbra, and HawkEye 360; GPS; miniature CubeSats for education and research; and military/defense satellites.

Loading next visibility...
Identifier
64775, 2025-147W
Orbit
LEO
Country
Flag of USUS
Related business
Manufacturer
SpaceX/Seattle
Mission
Operational Commercial Communications
Bus & Motor
STARLINK V2MO, Unknown motor
Mass
575 kg wet, ~530 kg dry
Launch date (UTC)
2025-07-08 (11 months ago)
Launch vehicle
FALCON 9
Launch site
Air Force Eastern Test Range (AFETR)
Object type
Payload
Rocket body
Debris
Shape & HBR
Box + 2 Pan, 17.7 m
Radar Cross Section
36.964 m², Large (>1 m²)

Expand to show TLE details & history
Last TLE update: 14 hours ago

TLE from 14 hours ago
0 STARLINK-34657
1 64775U 25147W   26171.25083522  .00022396  00000-0  67193-3 0  9993
2 64775  53.1581 124.9956 0001119  88.3329 271.7802 15.34402477 54479
Epoch: 2026-06-20T06:01Z
TLE epoch observation values (Epoch: 2026-06-20T06:01:12.163Z)
Latitude
-0.00003°
Longitude
126.22676°
Altitude
463.573 km
Speed
7.636 km/s
True Right ascension
08h 19m 58s
True Declination
0° 00' 00"
Sunlit
Object was in daylight at epoch
Visualization orbit readout
Latitude
Unknown
Longitude
Unknown
Altitude
Unknown
Speed
Unknown
Apparent Right ascension
Unknown
Apparent Declination
Unknown
Sunlit
N/A
Visualization observer readout
Local Sidereal Time
07:22:52
Azimuth
Unknown
Elevation
Unknown
Doppler factor
Unknown
Orbital elements
Apogee altitude
463.719 km
Perigee altitude
462.188 km
Semi-major axis
6,841.09 km
Eccentricity
0.00011
Inclination
53.1581°
RAAN
124.9956°
Arg. of periapsis
88.3329°
True anomaly
271.76738°
Mean anomaly
271.7802°
Eccentric anomaly
271.77379°
Mean motion
3.83579 °/min
Orbital period
93.85 mins
BSTAR
0.00067193
Loading maneuver chart data...
Computing Atmospheric mass density...
Loading historical data...
Loading historical data...
Loading historical data...
Loading historical data...
Loading historical data...
Loading historical data...
Loading historical data...

Documentation

Showing up to 5 results
|